Terminal Aerodrome Forecast
Issued by NWS

Home | Current Version | Previous Version | Text Only | Print | Product List | Glossary On
Versions: 1 2 3 4 5 6 7 8 9 10 11 12 13 14 15 16 17
000
FTUS45 KABQ 240500
TAFLVS
TAF
KLVS 240537Z 2406/2506 29013G20KT P6SM SKC
     FM241100 33015KT P6SM SKC
     FM241700 21015G22KT P6SM SKC
     FM242100 24021G29KT P6SM SKC
     FM250200 24014KT P6SM SKC=

USA.gov is the U.S. government's official web portal to all federal, state and local government web resources and services.